This demonstration page uses our WeatherBlox Daily Observations layout. Learn more.

Left ArrowRight Arrow

39.08367, -84.50855

Hourly Observations for April 8, 2020

Temp ( °F °C ) Dew Point ( °F °C ) Humidity (%) Winds ( mph kmh ) Pressure ( in mb ) Visibility ( mi km ) Precip ( " mm )
12:53 am 00:53 Clear 70 21.1 60 15.6 71 71 SW 13 20 29.67 1005 10 16 0.00 0.00
1:53 am 01:53 Clear 69 20.6 61 16.1 76 76 SW 10 17 29.67 1005 10 16 0.00 0.00
2:53 am 02:53 Cloudy 70 21.1 61 16.1 73 73 SW 10 17 29.67 1005 10 16 0.00 0.00
3:53 am 03:53 Cloudy 70 21.1 62 16.7 76 76 WSW 13 20 29.66 1004 10 16 0.00 0.00
4:53 am 04:53 Cloudy 70 21.1 62 16.7 76 76 SW 10 17 29.67 1005 10 16 0.00 0.00
5:53 am 05:53 Cloudy 70 21.1 62 16.7 76 76 SW 7 11 29.67 1005 10 16 0.00 0.00
6:26 am 06:26 Cloudy 69 20.6 62 16.7 78 78 WSW 7 11 29.68 1005 10 16 0.00 0.00
6:53 am 06:53 Mostly Cloudy 69 20.6 62 16.7 78 78 W 10 17 29.69 1005 10 16 0.00 0.00
7:53 am 07:53 Mostly Cloudy 69 20.6 63 17.2 81 81 W 7 11 29.71 1006 10 16 0.00 0.00
8:53 am 08:53 Mostly Sunny 71 21.7 63 17.2 76 76 WSW 8 13 29.72 1006 10 16 0.00 0.00
9:53 am 09:53 Partly Cloudy 73 22.8 63 17.2 71 71 WNW 12 19 29.71 1006 10 16 0.00 0.00
10:30 am 10:30 Mostly Cloudy 72 22.2 62 16.7 71 71 W 9 15 29.72 1007 10 16 0.00 0.00
10:53 am 10:53 Mostly Cloudy 75 23.9 63 17.2 66 66 WNW 12 19 29.72 1007 10 16 0.00 0.00
11:53 am 11:53 Mostly Sunny 77 25 61 16.1 58 58 W 12 19 29.73 1007 10 16 0.00 0.00
12:53 pm 12:53 Mostly Sunny 77 25 59 15 54 54 N 10 17 29.70 1006 10 16 0.00 0.00
1:53 pm 13:53 Partly Cloudy 80 26.7 55 12.8 42 42 NNW 8 13 29.69 1005 10 16 0.00 0.00
2:53 pm 14:53 Partly Cloudy 81 27.2 51 10.6 35 35 N 15 24 29.68 1005 10 16 0.00 0.00
3:53 pm 15:53 Partly Cloudy 80 26.7 49 9.4 34 34 N 9 15 29.66 1005 10 16 0.00 0.00
5:53 pm 17:53 Sunny 79 26.1 49 9.4 35 35 W 13 20 29.62 1003 10 16 0.00 0.00
6:53 pm 18:53 Sunny 76 24.4 52 11.1 43 43 WSW 5 7 29.59 1002 10 16 0.00 0.00
7:53 pm 19:53 Sunny 73 22.8 50 10 44 44 Calm 29.56 1001 10 16 0.00 0.00
8:53 pm 20:53 Clear 66 18.9 53 11.7 63 63 Calm 29.53 1000 10 16 0.00 0.00
9:53 pm 21:53 Mostly Cloudy 66 18.9 53 11.7 63 63 S 5 7 29.49 999 10 16 0.00 0.00
10:04 pm 22:04 Mostly Cloudy with Thunderstorms 66 18.9 55 12.8 68 68 S 8 13 29.47 998 10 16 0.00 0.00
10:32 pm 22:32 Mostly Cloudy with Thunderstorms 71 21.7 59 15 66 66 SSW 18 30 29.47 998 10 16 0.00 0.00
10:42 pm 22:42 Mostly Cloudy with Thunderstorms 65 18.3 55 12.8 70 70 WNW 26 43 29.62 1003 3 4 0.11 2.79
10:45 pm 22:45 Cloudy with Strong Thunderstorms 59 15 55 12.8 87 87 WNW 21 33 29.63 1003 1 2 0.19 4.83
10:58 pm 22:58 Cloudy with Strong Thunderstorms 58 14.4 55 12.8 90 90 WNW 17 28 29.65 1004 3 5 0.04 1.02
11:53 pm 23:53 Cloudy with Thunderstorms 57 14 N/A N/A SW 3 6 29.62 1003 6 10 0.29 7.37

Powered by AerisWeather